Back to catalog

FENGYUN 1C DEB

AliveLEO
NORAD 31286·DEBRIS·🇨🇳 China

Launched May 10, 1999 from Taiyuan Satellite Launch Center

Loading…

Next Passes (next 24 hours)

TLE

FreshSource: Space-Track

Epoch: Sep 14, 2026, 02:33 UTC

1 31286U 99025BNU 26257.10684305  .00003893  00000-0  16151-2 0  9993
2 31286 100.8576 217.0964 0074769 257.0853 102.1960 14.25810043679404

Track FENGYUN 1C DEB in real time with AllMySat

Download on the App Store